When you browse on this site, cookies collect data to enhance your experience and personalize the content and advertising you see.
Visit our Privacy Policy to learn more. By continuing to use the site, you agree to this use of cookies and data.
  • In France
  • List of Countries
  • For 7 days
  • Water Temperature
  • Weather Map
  • Weather Widgets
  • user-avatar
    Login

    Hourly Weather Essen

    Today, 19 September, Thursday

    Time Temperature Precipitation Wind Pressure Humidity
    00:00 +10°C° 0 mm 2 mps 763 mmHg 82%
    01:00 +11°C° 0 mm 1 mps 763 mmHg 83%
    02:00 +10°C° 0 mm 1 mps 763 mmHg 84%
    03:00 +10°C° 0 mm 1 mps 763 mmHg 84%
    04:00 +10°C° 0 mm 1 mps 763 mmHg 84%
    05:00 +10°C° 0 mm 1 mps 763 mmHg 83%
    06:00 +10°C° 0 mm 1 mps 764 mmHg 82%
    07:00 +11°C° 0 mm 1 mps 764 mmHg 73%
    08:00 +13°C° 0 mm 2 mps 764 mmHg 64%
    09:00 +14°C° 0 mm 2 mps 764 mmHg 55%
    10:00 +15°C° 0 mm 2 mps 764 mmHg 52%
    11:00 +15°C° 0 mm 2 mps 764 mmHg 49%
    12:00 +16°C° 0 mm 2 mps 765 mmHg 46%
    13:00 +17°C° 0 mm 2 mps 764 mmHg 45%
    14:00 +17°C° 0 mm 2 mps 764 mmHg 44%
    15:00 +17°C° 0 mm 3 mps 764 mmHg 43%
    16:00 +16°C° 0 mm 2 mps 764 mmHg 48%
    17:00 +14°C° 0 mm 2 mps 764 mmHg 53%
    18:00 +13°C° 0 mm 2 mps 764 mmHg 59%
    19:00 +13°C° 0 mm 1 mps 764 mmHg 61%
    20:00 +12°C° 0 mm 1 mps 764 mmHg 63%
    21:00 +12°C° 0 mm 1 mps 765 mmHg 65%
    22:00 +11°C° 0 mm 1 mps 764 mmHg 67%
    23:00 +11°C° 0 mm 1 mps 764 mmHg 68%

    Tomorrow, 20 September, Friday

    Time Temperature Precipitation Wind Pressure Humidity
    00:00 +11°C° 0 mm 1 mps 764 mmHg 70%
    01:00 +10°C° 0 mm 1 mps 764 mmHg 71%
    02:00 +9°C° 0 mm 0 mps 764 mmHg 72%
    03:00 +9°C° 0 mm 0 mps 764 mmHg 73%
    04:00 +9°C° 0 mm 0 mps 764 mmHg 72%
    05:00 +10°C° 0 mm 1 mps 764 mmHg 72%
    06:00 +10°C° 0 mm 1 mps 763 mmHg 71%
    07:00 +12°C° 0 mm 1 mps 763 mmHg 64%
    08:00 +14°C° 0 mm 1 mps 763 mmHg 57%
    09:00 +15°C° 0 mm 1 mps 763 mmHg 50%
    10:00 +18°C° 0 mm 1 mps 763 mmHg 45%
    11:00 +19°C° 0 mm 1 mps 763 mmHg 40%
    12:00 +20°C° 0 mm 1 mps 762 mmHg 35%
    13:00 +19°C° 0 mm 2 mps 762 mmHg 36%
    14:00 +20°C° 0 mm 2 mps 761 mmHg 37%
    15:00 +20°C° 0 mm 2 mps 761 mmHg 38%
    16:00 +18°C° 0 mm 2 mps 761 mmHg 43%
    17:00 +17°C° 0 mm 3 mps 760 mmHg 49%
    18:00 +14°C° 0 mm 3 mps 760 mmHg 54%
    19:00 +14°C° 0 mm 3 mps 760 mmHg 57%
    20:00 +13°C° 0 mm 3 mps 760 mmHg 59%
    21:00 +14°C° 0 mm 2 mps 760 mmHg 62%
    22:00 +13°C° 0 mm 2 mps 760 mmHg 62%
    23:00 +13°C° 0 mm 2 mps 759 mmHg 63%

    Day after tomorrow, 21 September, Saturday

    Time Temperature Precipitation Wind Pressure Humidity
    00:00 +13°C° 0 mm 2 mps 759 mmHg 63%
    01:00 +13°C° 0 mm 2 mps 759 mmHg 63%
    02:00 +12°C° 0 mm 2 mps 758 mmHg 63%
    03:00 +12°C° 0 mm 2 mps 758 mmHg 63%
    04:00 +12°C° 0 mm 2 mps 758 mmHg 62%
    05:00 +12°C° 0 mm 2 mps 757 mmHg 62%
    06:00 +12°C° 0 mm 2 mps 757 mmHg 62%
    07:00 +13°C° 0 mm 3 mps 757 mmHg 56%
    08:00 +16°C° 0 mm 3 mps 757 mmHg 50%
    09:00 +18°C° 0 mm 3 mps 757 mmHg 44%
    10:00 +19°C° 0 mm 3 mps 756 mmHg 41%
    11:00 +21°C° 0 mm 3 mps 756 mmHg 38%
    12:00 +22°C° 0 mm 4 mps 755 mmHg 35%
    13:00 +23°C° 0 mm 4 mps 755 mmHg 35%
    14:00 +23°C° 0 mm 4 mps 754 mmHg 35%
    15:00 +23°C° 0 mm 4 mps 753 mmHg 35%
    16:00 +22°C° 0 mm 3 mps 753 mmHg 40%
    17:00 +20°C° 0 mm 3 mps 753 mmHg 45%
    18:00 +18°C° 0 mm 3 mps 753 mmHg 50%
    19:00 +18°C° 0 mm 3 mps 753 mmHg 51%
    20:00 +17°C° 0 mm 3 mps 753 mmHg 52%
    21:00 +17°C° 0 mm 3 mps 753 mmHg 53%
    22:00 +16°C° 0 mm 3 mps 753 mmHg 54%
    23:00 +16°C° 0 mm 3 mps 752 mmHg 56%

    22 September, Sunday

    Time Temperature Precipitation Wind Pressure Humidity
    00:00 +14°C° 0 mm 3 mps 752 mmHg 57%
    01:00 +14°C° 0 mm 3 mps 751 mmHg 58%
    02:00 +14°C° 0 mm 3 mps 751 mmHg 59%
    03:00 +13°C° 0 mm 3 mps 751 mmHg 60%
    04:00 +13°C° 0 mm 3 mps 750 mmHg 61%
    05:00 +13°C° 0 mm 3 mps 750 mmHg 62%
    06:00 +13°C° 0 mm 3 mps 750 mmHg 63%
    07:00 +16°C° 0 mm 2 mps 750 mmHg 58%
    08:00 +18°C° 0 mm 2 mps 750 mmHg 54%
    09:00 +20°C° 0 mm 2 mps 750 mmHg 49%
    10:00 +21°C° 0 mm 2 mps 749 mmHg 47%
    11:00 +24°C° 0 mm 2 mps 749 mmHg 46%
    12:00 +26°C° 0 mm 2 mps 749 mmHg 44%
    13:00 +26°C° 0 mm 2 mps 749 mmHg 45%
    14:00 +26°C° 0 mm 2 mps 748 mmHg 47%
    15:00 +25°C° 0 mm 2 mps 748 mmHg 48%
    16:00 +24°C° 0 mm 2 mps 747 mmHg 52%
    17:00 +23°C° 0 mm 2 mps 747 mmHg 56%
    18:00 +21°C° 0 mm 2 mps 747 mmHg 59%
    19:00 +20°C° 0 mm 2 mps 747 mmHg 60%
    20:00 +19°C° 0 mm 2 mps 747 mmHg 61%
    21:00 +19°C° 0 mm 2 mps 747 mmHg 63%
    22:00 +18°C° 0 mm 2 mps 747 mmHg 65%
    23:00 +18°C° 0 mm 2 mps 747 mmHg 68%

    23 September, Monday

    Time Temperature Precipitation Wind Pressure Humidity
    00:00 +17°C° 0 mm 2 mps 747 mmHg 71%
    01:00 +17°C° 0.2 mm 3 mps 748 mmHg 76%
    02:00 +17°C° 0.2 mm 3 mps 748 mmHg 81%
    03:00 +17°C° 0.2 mm 4 mps 748 mmHg 85%
    04:00 +15°C° 1.3 mm 4 mps 748 mmHg 87%
    05:00 +14°C° 1.3 mm 4 mps 748 mmHg 88%
    06:00 +14°C° 1.3 mm 5 mps 749 mmHg 89%
    07:00 +14°C° 0.3 mm 4 mps 749 mmHg 89%
    08:00 +14°C° 0.3 mm 4 mps 749 mmHg 88%
    09:00 +14°C° 0.3 mm 3 mps 750 mmHg 88%
    10:00 +14°C° 0.2 mm 3 mps 750 mmHg 87%
    11:00 +16°C° 0.2 mm 3 mps 750 mmHg 87%
    12:00 +16°C° 0.2 mm 3 mps 750 mmHg 86%
    13:00 +16°C° 0 mm 3 mps 750 mmHg 83%
    14:00 +17°C° 0 mm 2 mps 750 mmHg 80%
    15:00 +18°C° 0 mm 2 mps 750 mmHg 78%
    16:00 +17°C° 0.1 mm 2 mps 751 mmHg 80%
    17:00 +17°C° 0.1 mm 2 mps 751 mmHg 82%
    18:00 +16°C° 0.1 mm 2 mps 751 mmHg 84%
    19:00 +16°C° 0 mm 2 mps 752 mmHg 84%
    20:00 +15°C° 0 mm 2 mps 752 mmHg 84%
    21:00 +15°C° 0 mm 2 mps 752 mmHg 84%
    22:00 +14°C° 0 mm 2 mps 752 mmHg 84%
    23:00 +14°C° 0 mm 2 mps 752 mmHg 83%

    24 September, Tuesday

    Time Temperature Precipitation Wind Pressure Humidity
    00:00 +13°C° 0 mm 2 mps 753 mmHg 83%
    01:00 +13°C° 0 mm 2 mps 752 mmHg 83%
    02:00 +13°C° 0 mm 2 mps 752 mmHg 84%
    03:00 +13°C° 0 mm 2 mps 752 mmHg 84%
    04:00 +13°C° 0 mm 2 mps 752 mmHg 84%
    05:00 +13°C° 0 mm 2 mps 752 mmHg 84%
    06:00 +13°C° 0 mm 2 mps 752 mmHg 83%
    07:00 +13°C° 0 mm 3 mps 752 mmHg 78%
    08:00 +16°C° 0 mm 3 mps 751 mmHg 72%
    09:00 +17°C° 0 mm 3 mps 751 mmHg 66%
    10:00 +18°C° 0 mm 3 mps 751 mmHg 62%
    11:00 +19°C° 0 mm 4 mps 750 mmHg 57%
    12:00 +20°C° 0 mm 4 mps 750 mmHg 53%
    13:00 +20°C° 0.1 mm 4 mps 749 mmHg 57%
    14:00 +19°C° 0.1 mm 3 mps 749 mmHg 60%
    15:00 +19°C° 0.1 mm 3 mps 748 mmHg 64%
    16:00 +18°C° 0.9 mm 4 mps 748 mmHg 71%
    17:00 +17°C° 0.9 mm 4 mps 747 mmHg 78%
    18:00 +15°C° 0.9 mm 5 mps 747 mmHg 85%
    19:00 +15°C° 0.6 mm 5 mps 747 mmHg 84%
    20:00 +15°C° 0.6 mm 5 mps 747 mmHg 84%
    21:00 +15°C° 0.6 mm 5 mps 746 mmHg 83%
    22:00 +15°C° 0.1 mm 5 mps 746 mmHg 85%
    23:00 +15°C° 0.1 mm 4 mps 746 mmHg 86%
    Show more